Volver al catálogo

STARLINK-37735

ActivoComunicacionesVLEO
NORAD 69243·PAYLOAD·🇺🇸 United States

Lanzado May 29, 2026 desde Cape Canaveral Space Force Station

Loading…

Próximos Pases (próximas 24 horas)

TLE

ActualizadoSource: CelesTrak SupGP

Época: Sep 15, 2026, 04:25 UTC

1 69243C 26117F   26258.18451389 -.00010971  00000+0 -32419-3 0  2582
2 69243  53.1568 178.5800 0001310  78.9904 194.1487 15.34391206    14

Sigue STARLINK-37735 en tiempo real con AllMySat

Download on the App Store